Wind_Speed
5 6 7 8 8 7 7 7 11 15 19 21 15 11 9 11 9 7 9 7 7 8 9 8 9 11 9 9 9 4 5 3 5 7 6 9 5 5 5 7 4 3 5 10 8
6 6 8 7 7 8 7 7 11 17 19 18 15 13 11 12 13 12 10 8 8 7 8 7 8 7 7 5 6 6 4 4 1 3 5 8 5 6 5 5 5 8 9 9 6
8 8 8 7 8 7 8 8 11 16 19 16 15 9 5 7 6 8 10 7 7 7 8 8 9 8 7 7 7 4 4 5 3 10 11 7 5 5 6 4 9 17 17 11 10
6 7 8 7 7 8 8 8 11 15 18 17 14 7 3 5 3 5 8 5 5 7 7 7 5 5 6 5 5 7 9 6 5 5 6 6 3 2 10 3 13 12 10 11 10
5 7 8 8 7 8 9 8 10 15 18 16 12 4 4 6 5 6 6 5 5 6 5 8 7 6 6 6 4 5 4 7 7 5 4 3 4 5 12 12 14 8 11 13 12
5 8 8 8 10 9 8 8 9 12 15 15 11 3 2 4 6 6 5 6 6 5 5 3 7 13 12 6 5 5 9 8 3 2 2 2 2 4 3 7 16 19 13 11 11
8 8 9 9 9 10 9 9 9 11 13 14 11 5 5 6 5 4 5 6 7 8 10 12 13 3 8 6 7 8 4 3 1 1 1 4 3 7 8 9 7 18 19 15 13
6 7 9 9 8 10 11 11 11 12 12 12 10 5 4 4 2 3 5 6 8 9 10 11 11 13 6 15 5 4 4 3 1 2 2 3 7 3 5 13 11 12 17 17 16
6 7 8 8 9 10 11 11 11 12 13 12 8 4 3 6 4 2 3 6 7 8 9 9 4 7 6 5 5 6 2 1 4 6 2 2 7 4 7 13 16 17 19 20 19
6 7 7 9 10 13 13 13 13 13 13 12 5 3 5 5 5 5 3 4 5 7 6 3 5 4 4 4 4 5 3 2 3 2 2 1 17 15 21 14 21 23 23 23 23
7 7 8 10 15 17 20 18 13 5 12 2 2 3 8 7 6 5 5 6 5 4 3 4 5 4 6 4 3 5 4 3 1 3 2 6 14 20 19 20 27 30 29 29 26
5 10 10 14 18 22 18 7 3 3 5 5 4 4 7 6 3 6 7 3 2 3 2 5 2 1 7 5 5 4 3 2 1 1 0 6 14 19 20 17 22 27 30 34 28
5 14 14 19 24 22 11 6 6 4 3 4 6 5 5 7 1 7 8 4 3 4 2 5 1 7 4 3 4 2 4 3 2 4 3 6 9 5 2 6 8 11 20 29 33
8 18 17 19 19 14 7 5 6 3 4 2 4 2 6 6 1 4 8 2 2 6 6 2 3 4 4 2 4 1 0 3 4 4 3 4 5 6 3 7 6 13 16 27 34
13 18 18 19 7 15 5 6 7 0 2 4 4 7 9 4 8 2 6 2 4 3 6 3 6 3 3 2 4 3 5 4 3 4 4 1 2 9 4 7 8 18 18 26 31
12 18 20 17 9 11 6 6 8 4 5 4 4 4 5 3 2 4 2 3 3 3 3 2 2 3 3 5 4 8 6 6 4 3 1 4 5 6 4 7 1 6 24 27 29
12 17 19 16 10 10 8 12 4 3 2 5 4 5 3 4 3 3 4 2 5 5 5 2 1 2 6 6 5 6 5 2 4 2 5 2 2 10 8 5 5 7 25 28 27
9 14 20 19 11 11 15 3 3 4 5 4 5 5 6 7 4 5 6 3 7 4 3 6 5 7 3 4 6 4 6 5 7 4 3 3 7 7 6 5 11 9 11 24 28
9 13 19 20 14 13 10 2 7 6 6 9 3 4 5 5 5 5 7 6 9 14 9 5 1 2 4 2 2 5 3 3 6 0 3 3 7 11 3 5 7 13 19 23 29
11 14 15 19 15 16 3 5 5 4 9 4 9 6 8 7 6 7 8 5 5 16 3 6 4 2 2 3 4 5 2 3 2 2 5 5 5 6 5 10 6 11 22 24 24
14 6 9 20 18 12 4 7 5 8 9 7 8 6 5 8 8 6 6 4 7 6 5 4 4 1 2 8 10 3 2 2 2 4 5 2 6 8 12 8 9 20 26 23 25
11 2 16 23 8 5 4 8 6 6 16 4 5 6 9 10 9 7 12 8 17 18 11 6 5 4 7 4 3 4 7 6 4 6 4 2 8 4 8 9 13 17 16 21 23
9 6 23 30 5 5 4 5 7 6 6 7 9 7 5 9 1 9 9 5 21 13 12 11 3 3 5 4 3 5 6 4 4 3 7 4 5 2 6 9 13 15 13 17 19
11 4 7 22 13 4 5 7 8 12 9 6 5 5 4 7 7 5 7 4 15 11 10 13 4 9 13 7 6 6 8 13 9 4 6 19 14 11 9 9 11 17 21 20 19
18 8 13 6 10 13 8 6 12 7 10 17 4 14 8 6 4 7 5 2 2 7 6 6 7 5 4 4 5 7 7 17 19 19 11 7 20 16 20 18 25 40 36 30 31
19 10 12 6 5 19 17 12 16 5 10 7 13 11 16 19 12 10 9 4 6 2 5 2 4 4 4 7 9 9 14 15 20 18 25 14 25 17 37 15 27 33 29 32 37
32 28 22 15 6 9 9 17 16 14 10 21 15 13 11 22 26 12 13 9 7 11 10 7 5 4 20 3 6 10 26 20 14 9 19 18 30 28 20 17 28 41 28 33 40
Wind_Direction
208 185 169 162 152 149 156 155 152 141 139 140 140 138 114 103 104 108 80 58 78 117 113 112 105 101 95 73 63 71 65 125 149 158 163 160 140 153 140 148 164 140 146 152 165
205 175 167 163 158 161 160 164 162 149 150 150 148 140 119 96 97 86 70 69 96 121 112 118 102 101 75 54 40 64 84 146 10 110 148 149 151 159 159 159 174 151 143 154 191
182 178 170 174 164 166 169 168 166 160 159 161 156 141 105 117 87 38 58 75 104 114 125 114 100 80 69 42 27 48 118 143 69 106 133 134 140 167 162 225 196 175 164 183 221
193 185 180 172 167 168 172 173 169 167 167 167 157 121 89 131 138 40 43 61 93 119 135 124 113 71 64 62 39 95 63 107 138 113 128 144 165 212 208 208 159 163 192 212 237
184 179 174 169 168 175 176 171 170 171 174 172 164 126 115 91 82 56 38 58 72 115 139 116 103 99 96 92 60 74 123 93 115 112 119 170 221 242 242 210 204 215 204 230 249
183 171 170 167 172 171 170 171 172 173 175 178 179 160 127 81 86 45 40 60 76 120 134 138 110 107 93 72 70 94 104 115 110 128 134 246 223 317 195 181 212 208 205 229 252
177 176 177 177 174 171 168 168 169 170 171 180 182 169 99 125 89 60 58 69 88 91 109 112 123 122 108 101 100 118 75 57 130 126 69 336 244 229 190 180 187 203 208 223 237
179 178 179 182 180 175 167 165 163 164 168 175 174 175 116 152 137 117 86 79 96 102 111 112 111 98 73 116 62 60 52 62 334 138 16 36 270 251 220 215 208 198 205 218 231
178 177 180 182 179 172 161 154 153 156 159 161 165 158 136 178 196 145 95 95 104 107 113 120 111 84 103 85 42 13 178 215 312 201 85 76 266 259 243 221 217 213 213 219 222
174 176 179 174 167 156 145 138 139 146 153 162 181 160 188 197 189 186 140 119 116 119 105 84 66 78 35 75 204 185 175 205 232 210 181 251 268 264 264 244 233 227 224 223 224
177 170 160 159 148 147 142 132 127 139 169 187 219 114 146 153 158 179 166 133 112 81 72 29 71 178 190 168 105 109 120 161 33 358 256 225 268 278 273 255 244 241 228 224 223
176 162 153 154 151 148 145 151 152 143 159 170 132 156 153 157 143 173 174 158 106 111 95 29 175 175 104 86 100 90 101 252 6 101 312 313 279 274 272 254 245 241 236 226 215
176 161 156 154 156 157 151 140 144 131 100 169 194 171 166 185 66 184 175 147 108 115 136 143 163 141 97 76 97 91 152 174 174 324 257 321 284 297 265 263 255 247 242 227 220
169 163 163 161 163 172 173 174 161 145 75 182 183 194 179 160 85 159 159 153 62 161 147 131 144 125 94 138 118 154 22 119 87 63 241 18 282 297 265 275 246 237 221 210 205
154 162 162 168 188 184 174 199 184 187 10 143 147 151 155 156 126 91 178 147 149 151 98 225 153 128 120 206 128 143 76 80 73 88 41 331 70 272 348 277 240 221 211 204 203
166 166 172 176 171 178 183 155 147 56 259 159 128 155 126 132 102 104 113 91 97 91 46 91 139 133 107 52 55 130 65 47 52 84 352 223 146 280 222 213 170 212 209 201 202
179 182 182 178 168 174 164 147 62 153 76 175 172 168 136 150 133 132 143 160 156 108 203 43 198 79 135 85 18 68 66 339 340 2 228 121 71 250 268 244 215 215 213 207 208
195 195 189 190 170 169 157 69 165 211 186 134 123 110 176 157 200 164 134 211 219 128 115 159 276 168 165 157 171 181 155 173 219 208 255 34 230 245 223 272 267 239 220 211 214
200 197 198 198 198 177 170 119 207 205 155 139 93 148 224 203 146 143 197 212 206 179 177 138 196 106 48 118 117 218 180 187 98 79 45 240 288 294 269 265 244 222 227 221 218
200 190 211 196 190 180 110 241 231 189 125 142 179 158 177 188 156 177 184 203 231 187 185 193 95 350 142 103 39 152 166 67 358 234 263 284 279 241 287 236 200 229 221 220 219
182 190 196 186 185 175 188 227 257 229 164 162 197 152 177 179 178 200 210 237 198 163 137 128 103 143 124 207 178 130 229 19 135 164 196 254 256 219 226 217 207 224 229 225 223
181 182 176 170 171 202 189 194 208 207 205 190 146 174 176 173 187 209 207 229 179 146 165 192 117 168 201 248 165 181 199 163 157 239 225 158 263 246 239 264 254 248 243 235 230
181 172 178 180 192 214 261 255 227 198 192 184 203 198 184 174 208 198 195 211 176 163 167 176 203 81 346 356 356 211 205 180 117 88 206 174 251 279 288 276 270 262 248 233 226
173 171 176 203 229 199 184 222 226 221 217 180 199 147 141 205 233 225 209 213 195 203 193 165 164 180 219 196 133 186 201 200 184 171 213 235 273 251 286 264 263 248 245 243 242
196 207 187 188 223 212 190 208 212 211 215 209 237 206 177 218 212 207 194 14 328 208 171 165 220 179 240 154 171 188 177 194 209 220 211 223 235 241 240 252 246 260 258 251 248
194 182 177 189 192 197 211 219 222 203 179 213 228 195 209 229 206 215 160 176 198 116 152 213 246 130 263 192 201 237 223 195 207 222 239 250 263 252 259 255 262 257 246 248 253
212 212 211 197 165 176 208 217 221 213 249 236 215 226 216 226 229 247 222 207 175 167 179 168 178 157 252 182 151 258 231 201 209 203 214 226 242 255 265 243 239 251 258 255 261
Height
1516 1516 1516 1516 1516 1517 1518 1519 1521 1522 1523 1524 1525 1526 1527 1527 1527 1527 1527 1529 1528 1529 1529 1529 1529 1529 1530 1531 1533 1535 1555 1573 1561 1565 1568 1569 1571 1574 1575 1575 1576 1577 1578 1579 1581
1515 1515 1516 1516 1517 1518 1519 1520 1522 1523 1524 1525 1526 1527 1528 1528 1529 1529 1531 1529 1529 1529 1530 1530 1529 1529 1531 1534 1536 1538 1559 1559 1561 1561 1565 1567 1569 1572 1574 1574 1575 1576 1576 1577 1578
1514 1515 1515 1516 1517 1518 1519 1520 1522 1524 1525 1526 1527 1529 1529 1529 1531 1532 1531 1531 1530 1530 1530 1530 1530 1530 1533 1538 1542 1546 1560 1560 1563 1563 1564 1566 1569 1571 1571 1572 1570 1571 1573 1575 1576
1513 1514 1514 1516 1517 1518 1519 1521 1522 1524 1526 1527 1529 1530 1530 1530 1536 1533 1532 1532 1532 1531 1532 1531 1531 1532 1539 1543 1546 1553 1558 1559 1563 1564 1565 1567 1568 1569 1569 1568 1569 1572 1574 1574 1574
1512 1513 1514 1515 1517 1518 1519 1521 1523 1525 1526 1528 1530 1531 1531 1532 1535 1534 1534 1533 1533 1532 1533 1532 1532 1535 1543 1546 1549 1553 1559 1560 1563 1565 1565 1566 1567 1567 1564 1566 1568 1569 1571 1572 1572
1512 1512 1514 1515 1517 1518 1520 1522 1524 1525 1527 1529 1531 1532 1533 1535 1535 1535 1535 1535 1534 1534 1534 1534 1535 1536 1542 1549 1552 1557 1559 1561 1563 1565 1566 1565 1565 1564 1560 1561 1562 1565 1567 1568 1569
1511 1511 1513 1515 1516 1518 1520 1522 1524 1526 1528 1530 1531 1533 1533 1536 1535 1537 1537 1536 1535 1535 1535 1536 1537 1539 1544 1550 1556 1558 1561 1562 1563 1564 1565 1565 1563 1560 1557 1559 1559 1560 1563 1565 1566
1510 1511 1512 1514 1515 1517 1520 1522 1524 1526 1528 1530 1532 1533 1534 1535 1536 1537 1537 1537 1537 1538 1538 1539 1540 1540 1546 1552 1557 1561 1563 1568 1562 1563 1565 1565 1559 1552 1554 1556 1557 1558 1560 1561 1563
1510 1511 1512 1513 1515 1518 1520 1522 1525 1527 1529 1531 1533 1533 1535 1536 1537 1538 1538 1539 1539 1540 1540 1541 1542 1546 1551 1557 1568 1569 1576 1565 1563 1563 1565 1566 1560 1551 1552 1553 1553 1555 1557 1558 1559
1509 1510 1511 1513 1515 1518 1521 1523 1526 1528 1530 1532 1533 1536 1536 1536 1537 1538 1539 1540 1540 1541 1542 1543 1545 1551 1557 1563 1569 1565 1572 1562 1561 1564 1566 1567 1557 1550 1550 1550 1548 1550 1553 1554 1555
1509 1511 1512 1513 1516 1518 1521 1525 1531 1533 1531 1531 1533 1533 1534 1536 1537 1539 1540 1540 1541 1542 1547 1546 1555 1560 1554 1555 1555 1558 1560 1560 1564 1566 1566 1566 1560 1542 1543 1543 1542 1543 1546 1548 1550
1508 1510 1512 1514 1516 1519 1522 1524 1526 1528 1530 1531 1532 1533 1535 1537 1538 1539 1541 1542 1542 1546 1547 1553 1561 1552 1553 1555 1557 1560 1565 1567 1568 1568 1570 1565 1557 1540 1534 1530 1530 1533 1535 1540 1545
1507 1510 1512 1514 1517 1520 1523 1524 1525 1526 1528 1532 1533 1534 1537 1539 1539 1539 1542 1542 1543 1547 1548 1554 1551 1552 1554 1559 1563 1565 1571 1570 1571 1572 1570 1570 1552 1536 1528 1527 1525 1527 1529 1533 1537
1505 1509 1512 1515 1523 1521 1523 1523 1525 1527 1534 1534 1534 1535 1536 1538 1540 1540 1542 1545 1545 1547 1550 1550 1552 1553 1557 1559 1564 1569 1568 1569 1572 1579 1582 1574 1566 1539 1527 1527 1524 1525 1524 1526 1531
1505 1509 1513 1517 1517 1520 1523 1523 1525 1527 1542 1535 1533 1534 1535 1539 1541 1542 1543 1544 1546 1547 1551 1550 1553 1556 1559 1559 1562 1569 1571 1574 1577 1586 1597 1580 1597 1540 1529 1522 1519 1518 1520 1522 1527
1505 1508 1512 1515 1517 1520 1521 1523 1526 1532 1534 1532 1532 1533 1536 1537 1540 1542 1544 1545 1547 1548 1550 1552 1552 1554 1557 1563 1563 1569 1578 1583 1591 1598 1605 1576 1582 1544 1532 1516 1512 1513 1516 1519 1524
1505 1508 1511 1514 1516 1518 1520 1524 1533 1536 1522 1529 1531 1532 1533 1537 1540 1541 1545 1549 1553 1562 1555 1555 1555 1555 1557 1565 1569 1575 1585 1593 1590 1606 1569 1575 1590 1543 1518 1513 1512 1511 1511 1516 1520
1505 1507 1509 1512 1514 1517 1520 1526 1530 1509 1516 1520 1524 1530 1532 1533 1538 1541 1545 1551 1546 1550 1564 1556 1559 1557 1556 1560 1564 1581 1579 1573 1567 1583 1570 1580 1571 1526 1510 1507 1506 1509 1509 1513 1516
1503 1505 1507 1510 1513 1516 1519 1536 1513 1507 1505 1515 1524 1528 1532 1529 1533 1538 1543 1543 1533 1533 1538 1556 1544 1557 1557 1558 1562 1578 1583 1572 1588 1604 1591 1568 1547 1516 1503 1505 1503 1504 1506 1508 1510
1500 1502 1504 1508 1511 1515 1520 1513 1504 1497 1501 1508 1510 1512 1524 1527 1532 1537 1536 1523 1521 1519 1523 1532 1552 1558 1559 1559 1563 1565 1566 1577 1588 1571 1582 1570 1567 1518 1507 1496 1499 1500 1498 1500 1504
1499 1501 1501 1504 1509 1514 1519 1511 1499 1495 1495 1502 1504 1512 1513 1520 1523 1528 1521 1513 1511 1519 1522 1532 1538 1563 1560 1558 1558 1567 1569 1577 1573 1568 1564 1576 1534 1504 1494 1493 1492 1489 1491 1495 1498
1496 1499 1499 1502 1508 1504 1505 1498 1492 1490 1492 1494 1497 1499 1506 1509 1517 1519 1514 1503 1503 1508 1522 1523 1545 1561 1555 1553 1552 1555 1552 1556 1550 1557 1574 1566 1532 1492 1491 1488 1487 1485 1487 1490 1493
1491 1493 1495 1497 1500 1499 1494 1489 1487 1487 1486 1490 1492 1492 1494 1503 1515 1505 1503 1497 1498 1501 1506 1513 1536 1560 1550 1555 1553 1551 1547 1546 1553 1561 1553 1544 1506 1490 1488 1486 1484 1485 1485 1486 1490
1485 1489 1491 1492 1486 1486 1489 1484 1483 1480 1482 1484 1485 1489 1493 1496 1494 1496 1498 1495 1496 1496 1497 1500 1516 1510 1492 1511 1525 1542 1536 1530 1529 1548 1530 1491 1490 1486 1487 1485 1483 1482 1481 1483 1485
1471 1468 1468 1476 1477 1478 1478 1472 1472 1478 1478 1479 1481 1481 1486 1492 1490 1492 1494 1497 1496 1495 1497 1500 1506 1509 1506 1504 1507 1508 1513 1518 1517 1507 1510 1485 1488 1478 1478 1475 1476 1475 1476 1478 1479
1451 1454 1461 1460 1461 1469 1470 1459 1466 1470 1470 1471 1469 1473 1474 1472 1476 1481 1484 1491 1487 1495 1498 1498 1503 1507 1508 1501 1501 1498 1494 1501 1501 1498 1493 1494 1476 1468 1459 1471 1467 1461 1466 1467 1467
1439 1440 1447 1446 1454 1461 1451 1449 1450 1460 1460 1460 1462 1466 1469 1461 1464 1469 1474 1477 1477 1482 1488 1495 1496 1496 1475 1504 1499 1493 1465 1483 1482 1484 1480 1487 1452 1447 1455 1458 1456 1450 1455 1455 1453